This demonstration page uses our WeatherBlox Daily Observations layout. Learn more.

Left ArrowRight Arrow

Hourly Observations for May 13, 2021

Temp ( °F °C ) Dew Point ( °F °C ) Humidity (%) Winds ( mph kmh ) Pressure ( in mb ) Visibility ( mi km ) Precip ( " mm )
12:15 am 00:15 Clear 47 8.4 39 3.7 73 73 N N/A 30.35 1028 10 16 N/A
12:35 am 00:35 Clear 47 8.1 38 3.6 74 74 S 6 9 30.36 1028 10 16 N/A
12:55 am 00:55 Mostly Cloudy 47 8.5 39 3.7 72 72 S 7 11 30.36 1028 10 16 N/A
1:15 am 01:15 Cloudy 48 9.1 39 4 71 71 S 8 13 30.36 1028 10 16 N/A
1:35 am 01:35 Cloudy 49 9.5 39 4.1 69 69 S 8 13 30.36 1028 10 16 N/A
1:55 am 01:55 Cloudy 49 9.5 40 4.3 70 70 S 7 11 30.35 1028 10 16 N/A
2:15 am 02:15 Cloudy 49 9.5 40 4.3 70 70 S 8 13 30.35 1028 10 16 N/A
2:35 am 02:35 Cloudy 49 9.5 40 4.2 70 70 S 9 15 30.34 1027 10 16 N/A
2:55 am 02:55 Mostly Cloudy 48 9 39 4.1 72 72 S 8 13 30.33 1027 10 16 N/A
3:15 am 03:15 Partly Cloudy 47 8.1 39 4 76 76 S 6 9 30.34 1027 10 16 N/A
3:35 am 03:35 Mostly Cloudy 47 8.2 39 4 75 75 S 8 13 30.34 1027 10 16 N/A
3:55 am 03:55 Mostly Cloudy 46 7.6 39 3.8 77 77 S 7 11 30.34 1028 10 16 N/A
4:15 am 04:15 Mostly Cloudy 45 7 38 3.6 79 79 S 7 11 30.35 1028 10 16 N/A
4:35 am 04:35 Mostly Cloudy 46 7.5 39 3.9 78 78 S 8 13 30.35 1028 10 16 N/A
4:55 am 04:55 Cloudy 46 7.7 39 3.7 76 76 S 8 13 30.34 1028 10 16 N/A
5:15 am 05:15 Mostly Cloudy 45 7.1 39 3.7 79 79 S 6 9 30.35 1028 10 16 N/A
5:35 am 05:35 Cloudy 46 7.5 39 3.7 77 77 S 9 15 30.35 1028 10 16 N/A
5:55 am 05:55 Cloudy 46 7.7 38 3.5 75 75 S 10 17 30.34 1028 10 16 N/A
6:15 am 06:15 Cloudy 46 7.5 38 3.5 76 76 S 9 15 30.34 1027 10 16 N/A
6:35 am 06:35 Mostly Cloudy 45 7.1 38 3.4 78 78 S 8 13 30.34 1027 10 16 N/A
6:55 am 06:55 Partly Cloudy 44 6.6 38 3.3 80 80 S 8 13 30.34 1028 10 16 N/A
7:15 am 07:15 Partly Cloudy 44 6.8 38 3.6 80 80 SSE 8 13 30.34 1027 10 16 N/A
7:35 am 07:35 Sunny 45 7.1 39 3.7 79 79 S 8 13 30.35 1028 10 16 N/A
7:55 am 07:55 Sunny 47 8.3 39 4.1 75 75 S 10 17 30.34 1027 10 16 N/A
8:15 am 08:15 Mostly Cloudy 49 9.4 40 4.5 72 72 S 16 26 30.32 1027 10 16 N/A
8:35 am 08:35 Partly Cloudy 51 10.3 41 5 70 70 S 13 20 30.31 1026 10 16 N/A
8:55 am 08:55 Sunny 53 11.8 41 5 63 63 S 20 31 30.30 1026 10 16 N/A
9:15 am 09:15 Sunny 55 12.9 41 5 59 59 S 20 31 30.29 1026 10 16 N/A
9:35 am 09:35 Sunny 56 13.6 41 5.1 57 57 S 21 33 30.27 1025 10 16 N/A
9:55 am 09:55 Sunny 58 14.4 42 5.3 55 55 SSW 21 33 30.26 1025 10 16 N/A
10:15 am 10:15 Sunny 59 14.8 42 5.5 54 54 S 20 31 30.25 1024 10 16 N/A
10:35 am 10:35 Sunny 60 15.7 43 5.9 52 52 S 23 37 30.23 1024 10 16 N/A
10:55 am 10:55 Sunny 61 16.2 43 5.9 51 51 SSW 20 31 30.23 1024 10 16 N/A
11:15 am 11:15 Sunny 62 16.5 42 5.6 49 49 S 17 28 30.23 1024 10 16 N/A
11:35 am 11:35 Sunny 63 17.4 43 6.2 48 48 S 17 28 30.21 1023 10 16 N/A
11:55 am 11:55 Sunny 64 18 43 6 46 46 S 18 30 30.19 1022 10 16 N/A
12:15 pm 12:15 Partly Cloudy 65 18.5 43 6.1 44 44 S 17 28 30.19 1022 10 16 N/A
12:35 pm 12:35 Partly Cloudy 66 19 43 6 43 43 S 17 28 30.16 1021 10 16 N/A
12:55 pm 12:55 Partly Cloudy 67 19.2 43 5.9 42 42 S 17 28 30.16 1021 10 16 N/A
1:15 pm 13:15 Partly Cloudy 67 19.5 43 6.3 42 42 S 22 35 30.15 1021 10 16 N/A
1:35 pm 13:35 Partly Cloudy 67 19.7 42 5.8 40 40 S 18 30 30.13 1020 10 16 N/A
1:55 pm 13:55 Partly Cloudy 68 19.9 42 5.6 39 39 S 18 30 30.13 1020 10 16 N/A
2:15 pm 14:15 Partly Cloudy 68 20.1 43 6.1 40 40 S 18 30 30.12 1020 10 16 N/A
2:35 pm 14:35 Sunny 69 20.7 43 6 38 38 S 18 30 30.10 1019 10 16 N/A
2:55 pm 14:55 Partly Cloudy 70 21 43 6.2 38 38 S 20 31 30.10 1019 10 16 N/A
3:15 pm 15:15 Partly Cloudy 69 20.6 43 5.9 38 38 S 20 31 30.09 1019 10 16 N/A
3:35 pm 15:35 Partly Cloudy 71 21.5 44 6.4 38 38 S 21 33 30.07 1018 10 16 N/A
3:55 pm 15:55 Sunny 70 21.1 43 6.3 38 38 S 22 35 30.07 1018 10 16 N/A
4:15 pm 16:15 Sunny 70 21.3 44 6.4 38 38 S 21 33 30.06 1018 10 16 N/A
4:35 pm 16:35 Sunny 71 21.5 44 6.4 38 38 S 17 28 30.04 1017 10 16 N/A
4:55 pm 16:55 Sunny 71 21.6 44 6.6 38 38 S 23 37 30.03 1017 10 16 N/A
5:15 pm 17:15 Partly Cloudy 70 20.9 43 6.3 39 39 S 17 28 30.03 1017 10 16 N/A
5:35 pm 17:35 Partly Cloudy 70 21.3 44 6.8 39 39 SSE 24 39 30.01 1016 10 16 N/A
5:55 pm 17:55 Partly Cloudy 70 21.2 44 6.7 39 39 S 22 35 30.01 1016 10 16 N/A
6:15 pm 18:15 Partly Cloudy 69 20.3 45 7 42 42 S 18 30 30.00 1016 10 16 N/A
6:35 pm 18:35 Sunny 68 20 45 7.1 43 43 S 22 35 30.01 1016 10 16 N/A
6:55 pm 18:55 Sunny 67 19.6 45 7.1 44 44 S 20 31 30.01 1016 10 16 N/A
7:15 pm 19:15 Partly Cloudy 67 19.3 45 7 45 45 S 20 31 30.00 1016 10 16 N/A
7:35 pm 19:35 Sunny 66 19 45 7.2 46 46 SSE 22 35 30.00 1016 10 16 N/A
7:55 pm 19:55 Sunny 66 18.7 45 7.1 47 47 SSE 20 31 30.00 1016 10 16 N/A
8:15 pm 20:15 Sunny 65 18.3 45 7.2 49 49 SSE 17 28 30.00 1016 10 16 N/A
8:35 pm 20:35 Sunny 65 18.1 45 7.2 49 49 SSE 14 22 30.02 1017 10 16 N/A
8:55 pm 20:55 Mostly Cloudy 64 17.8 45 7.3 50 50 SSE 15 24 30.02 1016 10 16 N/A
9:15 pm 21:15 Cloudy 62 16.8 48 9.1 61 61 S 12 19 30.05 1018 10 16 N/A
9:35 pm 21:35 Cloudy with Rain 60 15.5 50 10 70 70 S 9 15 30.08 1019 7 11 0.04 1.02
9:55 pm 21:55 Cloudy with Light Rain 58 14.5 52 11.1 80 80 SSE 7 11 30.10 1019 10 16 0.10 2.54
10:15 pm 22:15 Cloudy with Rain 58 14.2 52 11.1 82 82 S 8 13 30.13 1020 7 11 0.02 0.51
10:35 pm 22:35 Cloudy with Rain 57 14 52 11 82 82 SSE 16 26 30.12 1020 10 16 0.06 1.52
10:55 pm 22:55 Cloudy with Drizzle 56 13.6 52 11.2 86 86 SSE 15 24 30.12 1020 10 16 0.06 1.52
11:15 pm 23:15 Cloudy with Thunderstorms 56 13.3 52 11.3 88 88 SE 15 24 30.12 1020 10 16 0.01 0.25
11:35 pm 23:35 Cloudy 56 13.2 52 11.3 88 88 SSE 16 26 30.13 1020 10 16 0.01 0.25
11:55 pm 23:55 Cloudy with Nearby Thunderstorms 56 13.1 52 11.1 88 88 SSE 16 26 30.13 1020 7 11 0.04 1.02

Powered by AerisWeather